Simultaneous Nadir Overpasses (SNOs) Predictions

Prediction of SNOs between NOAA-20 and AQUA Satellite Orbit:

Table of predicted SNOs for the next 14.0 days since TLE Epoch: 6/6/2020
Index Date (NOAA-20) Time (NOAA-20) Lat,Lon (NOAA-20) SZA (NOAA-20 ) Date (AQUA) Time (AQUA) Lat,Lon (AQUA) SZA (AQUA ) Distance(km) Time Diff (sec)
1 06/08/2020 05:56:31 -76.04, 149.96 105.26 06/08/2020 05:57:02 -76.03, 149.89 105.27 1.84 31
2 06/08/2020 06:46:58 76.80, -39.94 73.78 06/08/2020 06:46:11 76.80, -39.90 73.81 1.04 47
3 06/10/2020 22:13:21 -76.23, -93.59 105.68 06/10/2020 22:13:27 -76.23, -93.59 105.68 0.06 6
4 06/10/2020 23:03:48 76.98, 76.58 73.37 06/10/2020 23:02:36 76.99, 76.68 73.40 2.57 72
5 06/13/2020 13:39:42 75.59,-147.27 74.99 06/13/2020 13:40:40 75.59,-147.31 74.95 1.28 58
6 06/13/2020 14:30:09 -76.47, 23.03 106.10 06/13/2020 14:29:50 -76.47, 23.08 106.10 1.32 19
7 06/16/2020 05:56:30 75.88, -30.56 74.56 06/16/2020 05:57:03 75.88, -30.57 74.53 0.12 33
8 06/16/2020 06:46:58 -76.70, 139.69 106.48 06/16/2020 06:46:14 -76.71, 139.77 106.46 2.25 44
9 06/18/2020 22:13:18 76.16, 86.17 74.18 06/18/2020 22:13:26 76.16, 86.20 74.17 0.71 8




NCC Satellite Simultaneous Nadir Overpasses (SNOs) Prediction Service
